User: anonymous   Login
Location: Kitchener
(43.4500°N, 80.5000°W)
Time: 21:00:53
(UTC-05:00)
Language:

ATLAS 5 CENTAUR R/B - Orbit

View from above orbital plane
View from above orbital plane
View from above satellite
View from above satellite

Ground track
Ground track

The orbit data is extracted from the following two-line orbital elements,

1 31702U 07027B   18038.75752958 0.00000300  00000-0  88731-4 0    04
2 31702  63.3502 256.3101 0312000   6.4607 353.5393 14.18620400    08
Epoch (UTC): 07 February 2018 18:10:50
Eccentricity: 0.0312000
inclination: 63.3502°
perigee height: 605 km
apogee height: 1055 km
right ascension of ascending node: 256.3101°
argument of perigee: 6.4607°
revolutions per day: 14.18620400
mean anomaly at epoch: 353.5393°
orbit number at epoch: 0

The dashed part of the orbit path shows where the satellite is in the earth's shadow,  

DLR